Arethusa — 9HJR9 — position and weather

sailwx.info

Track history (hours):
 
Tides and Currents Weather Stations Pressure Air Temp Water Temp Dewpoint Dewpoint Depression Visibility Wind Speed Wind Dir Waves Ship Positions

Arethusa

Last reported at 2014-Oct-21 01:33 UTC. Time now 2014-Oct-21 02:19 UTC.
Position N 44°02' E 010°02'.

Length 60 m; draft 3 m.

Type: Passenger vessel. MMSI: 249069000.

Date/timePositionNaut miles runAvg speedWind from/ knotsBaromVisibWave heightAir tempDewpointWater temp
2014-Oct-21 01:33N 44°02' E 010°02'0 0.0
2014-Oct-21 00:33N 44°02' E 010°02'0 0.0
2014-Oct-20 23:33N 44°02' E 010°02'0 0.0
2014-Oct-20 22:33N 44°02' E 010°02'0 0.0
2014-Oct-20 21:33N 44°02' E 010°02'3 2.8
2014-Oct-20 20:33N 43°59' E 010°03'10 9.9
2014-Oct-20 19:33N 43°49' E 010°04'10 9.8
2014-Oct-20 18:33N 43°40' E 010°05'10 9.7
2014-Oct-20 17:33N 43°30' E 010°06'10 9.8
2014-Oct-20 16:33N 43°21' E 010°10'33 1.9
2014-Oct-19 23:22N 42°49' E 010°20'0 0.0
2014-Oct-19 22:25N 42°49' E 010°20'0 0.0
2014-Oct-19 21:33N 42°49' E 010°20'0 0.0
2014-Oct-19 20:33N 42°49' E 010°20'0 0.0
2014-Oct-19 19:33N 42°49' E 010°20'7 7.0
2014-Oct-19 18:33N 42°55' E 010°19'1010.5
2014-Oct-19 17:33N 43°06' E 010°17'1010.4
2014-Oct-19 16:33N 43°16' E 010°15'10 9.9
2014-Oct-19 15:33N 43°26' E 010°13'8 8.0
2014-Oct-19 14:33N 43°33' E 010°18'0 0.1
2014-Oct-19 12:32N 43°33' E 010°18'0 0.0
2014-Oct-19 11:26N 43°33' E 010°18'0 0.0
2014-Oct-19 10:05N 43°33' E 010°18'0 0.0
2014-Oct-19 09:20N 43°33' E 010°18'0 0.0
2014-Oct-19 08:26N 43°33' E 010°18'0 0.0
2014-Oct-19 07:29N 43°33' E 010°18'0 0.0
2014-Oct-19 06:23N 43°33' E 010°18'0 0.0
2014-Oct-19 05:23N 43°33' E 010°18'0 0.0
2014-Oct-19 04:32N 43°33' E 010°18'0 0.0
2014-Oct-19 03:32N 43°33' E 010°18'0 0.0
2014-Oct-19 02:26N 43°33' E 010°18'0 0.0
2014-Oct-19 01:32N 43°33' E 010°18'0 0.0
2014-Oct-19 00:32N 43°33' E 010°18'0 0.0
2014-Oct-18 23:32N 43°33' E 010°18'0 0.0
2014-Oct-18 22:32N 43°33' E 010°18'4 4.5
2014-Oct-18 21:34N 43°30' E 010°14'10 9.9
2014-Oct-18 20:33N 43°20' E 010°15'10 9.9
2014-Oct-18 19:33N 43°10' E 010°17'12 0.7
2014-Oct-18 01:33N 43°21' E 010°09'9 9.2
2014-Oct-18 00:33N 43°30' E 010°06'9 9.3
2014-Oct-17 23:33N 43°39' E 010°05'9 9.4
2014-Oct-17 22:33N 43°49' E 010°04'9 8.9
2014-Oct-17 21:33N 43°58' E 010°03'5 4.5
2014-Oct-17 20:32N 44°02' E 010°02'0 0.0
2014-Oct-17 19:29N 44°02' E 010°02'0 0.0
2014-Oct-17 18:29N 44°02' E 010°02'0 0.0
2014-Oct-17 17:32N 44°02' E 010°02'0 0.0
2014-Oct-17 16:29N 44°02' E 010°02'0 0.0
2014-Oct-17 15:32N 44°02' E 010°02'0 0.0
2014-Oct-17 14:32N 44°02' E 010°02'0 0.0
2014-Oct-17 13:26N 44°02' E 010°02'0 0.0
2014-Oct-17 12:32N 44°02' E 010°02'0 0.0
2014-Oct-17 11:26N 44°02' E 010°02'0 0.0
2014-Oct-17 10:32N 44°02' E 010°02'0 0.0
2014-Oct-17 09:32N 44°02' E 010°02'0 0.0
2014-Oct-17 08:32N 44°02' E 010°02'0 0.0
2014-Oct-17 07:32N 44°02' E 010°02'0 0.0
2014-Oct-17 06:29N 44°02' E 010°02'0 0.0
2014-Oct-17 05:32N 44°02' E 010°02'0 0.0
2014-Oct-17 04:32N 44°02' E 010°02'0 0.0
2014-Oct-17 03:32N 44°02' E 010°02'0 0.0
2014-Oct-17 02:32N 44°02' E 010°02'0 0.0
2014-Oct-17 01:32N 44°02' E 010°02'0 0.0
2014-Oct-17 00:32N 44°02' E 010°02'0 0.0
2014-Oct-16 23:32N 44°02' E 010°02'0 0.0
2014-Oct-16 22:32N 44°02' E 010°02'0 0.0
2014-Oct-16 21:29N 44°02' E 010°02'0 0.0
2014-Oct-16 20:32N 44°02' E 010°02'0 0.0
2014-Oct-16 19:32N 44°02' E 010°02'0 0.0
2014-Oct-16 18:32N 44°02' E 010°02'0 0.0
2014-Oct-16 17:32N 44°02' E 010°02'0 0.0
2014-Oct-16 16:29N 44°02' E 010°02'0 0.0
2014-Oct-16 15:32N 44°02' E 010°02'0 0.0
2014-Oct-16 14:32N 44°02' E 010°02'0 0.0
2014-Oct-16 13:29N 44°02' E 010°02'0 0.0
2014-Oct-16 12:32N 44°02' E 010°02'0 0.0
2014-Oct-16 11:32N 44°02' E 010°02'0 0.0
2014-Oct-16 10:32N 44°02' E 010°02'0 0.0
2014-Oct-16 09:32N 44°02' E 010°02'0 0.0
2014-Oct-16 08:32N 44°02' E 010°02'0 0.0
2014-Oct-16 07:32N 44°02' E 010°02'0 0.0
2014-Oct-16 06:32N 44°02' E 010°02'0 0.0
2014-Oct-16 05:32N 44°02' E 010°02'4 3.7
2014-Oct-16 04:33N 44°01' E 009°58'5 5.4
2014-Oct-16 03:33N 44°03' E 009°51'0 0.0
2014-Oct-16 02:33N 44°03' E 009°51'0 0.0
2014-Oct-16 01:33N 44°03' E 009°51'0 0.0
2014-Oct-16 00:33N 44°03' E 009°51'0 0.0
2014-Oct-15 23:33N 44°03' E 009°51'0 0.0
2014-Oct-15 22:33N 44°03' E 009°51'0 0.0
2014-Oct-15 21:34N 44°03' E 009°51'0 0.0
2014-Oct-15 20:34N 44°03' E 009°51'0 0.0
2014-Oct-15 19:34N 44°03' E 009°51'0 0.0
2014-Oct-15 18:34N 44°03' E 009°51'0 0.0
2014-Oct-15 17:34N 44°03' E 009°51'0 0.0
2014-Oct-15 16:34N 44°03' E 009°51'0 0.0
2014-Oct-15 15:33N 44°03' E 009°51'0 0.0
2014-Oct-15 14:33N 44°03' E 009°51'0 0.0
2014-Oct-15 13:34N 44°03' E 009°51'0 0.0
2014-Oct-15 12:34N 44°03' E 009°51'0 0.0
2014-Oct-15 11:34N 44°03' E 009°51'0 0.0
2014-Oct-15 10:34N 44°03' E 009°51'0 0.0
2014-Oct-15 09:33N 44°03' E 009°51'0 0.0
2014-Oct-15 08:34N 44°03' E 009°51'0 0.0
2014-Oct-15 07:33N 44°03' E 009°51'0 0.0
2014-Oct-15 06:33N 44°03' E 009°51'0 0.0
2014-Oct-15 05:34N 44°03' E 009°51'0 0.0
2014-Oct-15 04:34N 44°03' E 009°51'0 0.0
2014-Oct-15 03:34N 44°03' E 009°51'0 0.0
2014-Oct-15 02:34N 44°03' E 009°51'0 0.0
2014-Oct-15 01:34N 44°03' E 009°51'0 0.0
2014-Oct-15 00:34N 44°03' E 009°51'0 0.0
2014-Oct-14 23:34N 44°03' E 009°51'0 0.0
2014-Oct-14 22:33N 44°03' E 009°51'0 0.0
2014-Oct-14 21:33N 44°03' E 009°51'1 1.3
2014-Oct-14 20:33N 44°03' E 009°53'4 4.2
2014-Oct-14 19:33N 44°01' E 009°47'9 9.5
2014-Oct-14 18:34N 44°05' E 009°36'1010.0
2014-Oct-14 17:34N 44°12' E 009°25'10 1.7
2014-Oct-14 11:33N 44°16' E 009°13'1111.2
2014-Oct-14 10:33N 44°10' E 008°60'1111.4
2014-Oct-14 09:33N 44°04' E 008°46'6510.8
2014-Oct-14 03:32N 43°40' E 007°22'4 3.8
2014-Oct-14 02:29N 43°42' E 007°17'0 0.0
2014-Oct-14 01:29N 43°42' E 007°17'0 0.0
2014-Oct-14 00:29N 43°42' E 007°17'0 0.0
2014-Oct-13 23:29N 43°42' E 007°17'0 0.0
2014-Oct-13 22:23N 43°42' E 007°17'0 0.0
2014-Oct-13 21:29N 43°42' E 007°17'0 0.0
2014-Oct-13 20:29N 43°42' E 007°17'0 0.0
2014-Oct-13 19:29N 43°42' E 007°17'0 0.0
2014-Oct-13 18:29N 43°42' E 007°17'0 0.0
2014-Oct-13 17:29N 43°42' E 007°17'0 0.0
2014-Oct-13 16:29N 43°42' E 007°17'0 0.0
2014-Oct-13 15:29N 43°42' E 007°17'0 0.0
2014-Oct-13 14:29N 43°42' E 007°17'0 0.0
2014-Oct-13 12:33N 43°42' E 007°17'0 0.0
2014-Oct-13 11:33N 43°42' E 007°17'0 0.0
2014-Oct-13 10:33N 43°42' E 007°17'0 0.0
2014-Oct-13 09:33N 43°42' E 007°17'0 0.0
2014-Oct-13 08:33N 43°42' E 007°17'0 0.0
2014-Oct-13 07:33N 43°42' E 007°17'0 0.0
2014-Oct-13 06:33N 43°42' E 007°17'0 0.0
2014-Oct-13 05:33N 43°42' E 007°17'0 0.0
2014-Oct-13 04:33N 43°42' E 007°17'0 0.0
2014-Oct-13 03:33N 43°42' E 007°17'0 0.0
2014-Oct-13 02:33N 43°42' E 007°17'0 0.0
2014-Oct-13 01:33N 43°42' E 007°17'0 0.0
2014-Oct-13 00:33N 43°42' E 007°17'0 0.0
2014-Oct-12 23:33N 43°42' E 007°17'0 0.0
2014-Oct-12 22:33N 43°42' E 007°17'0 0.0
2014-Oct-12 21:33N 43°42' E 007°17'0 0.0
2014-Oct-12 20:33N 43°42' E 007°17'0 0.0
2014-Oct-12 19:33N 43°42' E 007°17'0 0.0
2014-Oct-12 18:33N 43°42' E 007°17'0 0.0
2014-Oct-12 17:33N 43°42' E 007°17'0 0.0
2014-Oct-12 16:33N 43°42' E 007°17'0 0.0
2014-Oct-12 15:33N 43°42' E 007°17'0 0.0
2014-Oct-12 14:33N 43°42' E 007°17'0 0.0
2014-Oct-12 13:33N 43°42' E 007°17'0 0.0
2014-Oct-12 12:33N 43°42' E 007°17'0 0.0
2014-Oct-12 11:33N 43°42' E 007°17'0 0.0
2014-Oct-12 10:33N 43°42' E 007°17'0 0.0
2014-Oct-12 09:33N 43°42' E 007°17'0 0.0
2014-Oct-12 08:33N 43°42' E 007°17'0 0.0
2014-Oct-12 07:33N 43°42' E 007°17'0 0.0
2014-Oct-12 06:33N 43°42' E 007°17'0 0.0
2014-Oct-12 05:33N 43°42' E 007°17'0 0.0
2014-Oct-12 04:33N 43°42' E 007°17'0 0.0
2014-Oct-12 03:33N 43°42' E 007°17'0 0.0
2014-Oct-12 02:33N 43°42' E 007°17'0 0.0
2014-Oct-12 01:33N 43°42' E 007°17'0 0.0
2014-Oct-12 00:33N 43°42' E 007°17'0 0.0
2014-Oct-11 23:33N 43°42' E 007°17'0 0.0
2014-Oct-11 22:33N 43°42' E 007°17'0 0.0
2014-Oct-11 21:33N 43°42' E 007°17'0 0.0
2014-Oct-11 20:33N 43°42' E 007°17'0 0.0
2014-Oct-11 19:33N 43°42' E 007°17'0 0.0
2014-Oct-11 18:33N 43°42' E 007°17'0 0.0
2014-Oct-11 17:33N 43°42' E 007°17'0 0.0
2014-Oct-11 15:28N 43°42' E 007°17'0 0.0
2014-Oct-11 14:33N 43°42' E 007°17'0 0.0
2014-Oct-11 13:33N 43°42' E 007°17'0 0.0
2014-Oct-11 12:33N 43°42' E 007°17'0 0.0
2014-Oct-11 11:33N 43°42' E 007°17'0 0.0
2014-Oct-11 10:33N 43°42' E 007°17'0 0.0
2014-Oct-11 09:33N 43°42' E 007°17'0 0.0
2014-Oct-11 08:33N 43°42' E 007°17'0 0.0
2014-Oct-11 07:27N 43°42' E 007°17'0 0.0
2014-Oct-11 06:33N 43°42' E 007°17'0 0.0
2014-Oct-11 05:33N 43°42' E 007°17'1 0.8
2014-Oct-11 04:33N 43°41' E 007°17'  
Track history (hours):
 
Tides and Currents Weather Stations Pressure Air Temp Water Temp Dewpoint Dewpoint Depression Visibility Wind Speed Wind Dir Waves Ship Positions

Arethusa

Last reported at 2014-Oct-21 01:33 UTC. Time now 2014-Oct-21 02:19 UTC.
Position N 44°02' E 010°02'.

Length 60 m; draft 3 m.

Type: Passenger vessel. MMSI: 249069000.

Date/timePositionNaut miles runAvg speedWind from/ knotsBaromVisibWave heightAir tempDewpointWater temp
2014-Oct-21 01:33N 44°02' E 010°02'0 0.0
2014-Oct-21 00:33N 44°02' E 010°02'0 0.0
2014-Oct-20 23:33N 44°02' E 010°02'0 0.0
2014-Oct-20 22:33N 44°02' E 010°02'0 0.0
2014-Oct-20 21:33N 44°02' E 010°02'3 2.8
2014-Oct-20 20:33N 43°59' E 010°03'10 9.9
2014-Oct-20 19:33N 43°49' E 010°04'10 9.8
2014-Oct-20 18:33N 43°40' E 010°05'10 9.7
2014-Oct-20 17:33N 43°30' E 010°06'10 9.8
2014-Oct-20 16:33N 43°21' E 010°10'33 1.9
2014-Oct-19 23:22N 42°49' E 010°20'0 0.0
2014-Oct-19 22:25N 42°49' E 010°20'0 0.0
2014-Oct-19 21:33N 42°49' E 010°20'0 0.0
2014-Oct-19 20:33N 42°49' E 010°20'0 0.0
2014-Oct-19 19:33N 42°49' E 010°20'7 7.0
2014-Oct-19 18:33N 42°55' E 010°19'1010.5
2014-Oct-19 17:33N 43°06' E 010°17'1010.4
2014-Oct-19 16:33N 43°16' E 010°15'10 9.9
2014-Oct-19 15:33N 43°26' E 010°13'8 8.0
2014-Oct-19 14:33N 43°33' E 010°18'0 0.1
2014-Oct-19 12:32N 43°33' E 010°18'0 0.0
2014-Oct-19 11:26N 43°33' E 010°18'0 0.0
2014-Oct-19 10:05N 43°33' E 010°18'0 0.0
2014-Oct-19 09:20N 43°33' E 010°18'0 0.0
2014-Oct-19 08:26N 43°33' E 010°18'0 0.0
2014-Oct-19 07:29N 43°33' E 010°18'0 0.0
2014-Oct-19 06:23N 43°33' E 010°18'0 0.0
2014-Oct-19 05:23N 43°33' E 010°18'0 0.0
2014-Oct-19 04:32N 43°33' E 010°18'0 0.0
2014-Oct-19 03:32N 43°33' E 010°18'0 0.0
2014-Oct-19 02:26N 43°33' E 010°18'0 0.0
2014-Oct-19 01:32N 43°33' E 010°18'0 0.0
2014-Oct-19 00:32N 43°33' E 010°18'0 0.0
2014-Oct-18 23:32N 43°33' E 010°18'0 0.0
2014-Oct-18 22:32N 43°33' E 010°18'4 4.5
2014-Oct-18 21:34N 43°30' E 010°14'10 9.9
2014-Oct-18 20:33N 43°20' E 010°15'10 9.9
2014-Oct-18 19:33N 43°10' E 010°17'12 0.7
2014-Oct-18 01:33N 43°21' E 010°09'9 9.2
2014-Oct-18 00:33N 43°30' E 010°06'9 9.3
2014-Oct-17 23:33N 43°39' E 010°05'9 9.4
2014-Oct-17 22:33N 43°49' E 010°04'9 8.9
2014-Oct-17 21:33N 43°58' E 010°03'5 4.5
2014-Oct-17 20:32N 44°02' E 010°02'0 0.0
2014-Oct-17 19:29N 44°02' E 010°02'0 0.0
2014-Oct-17 18:29N 44°02' E 010°02'0 0.0
2014-Oct-17 17:32N 44°02' E 010°02'0 0.0
2014-Oct-17 16:29N 44°02' E 010°02'0 0.0
2014-Oct-17 15:32N 44°02' E 010°02'0 0.0
2014-Oct-17 14:32N 44°02' E 010°02'0 0.0
2014-Oct-17 13:26N 44°02' E 010°02'0 0.0
2014-Oct-17 12:32N 44°02' E 010°02'0 0.0
2014-Oct-17 11:26N 44°02' E 010°02'0 0.0
2014-Oct-17 10:32N 44°02' E 010°02'0 0.0
2014-Oct-17 09:32N 44°02' E 010°02'0 0.0
2014-Oct-17 08:32N 44°02' E 010°02'0 0.0
2014-Oct-17 07:32N 44°02' E 010°02'0 0.0
2014-Oct-17 06:29N 44°02' E 010°02'0 0.0
2014-Oct-17 05:32N 44°02' E 010°02'0 0.0
2014-Oct-17 04:32N 44°02' E 010°02'0 0.0
2014-Oct-17 03:32N 44°02' E 010°02'0 0.0
2014-Oct-17 02:32N 44°02' E 010°02'0 0.0
2014-Oct-17 01:32N 44°02' E 010°02'0 0.0
2014-Oct-17 00:32N 44°02' E 010°02'0 0.0
2014-Oct-16 23:32N 44°02' E 010°02'0 0.0
2014-Oct-16 22:32N 44°02' E 010°02'0 0.0
2014-Oct-16 21:29N 44°02' E 010°02'0 0.0
2014-Oct-16 20:32N 44°02' E 010°02'0 0.0
2014-Oct-16 19:32N 44°02' E 010°02'0 0.0
2014-Oct-16 18:32N 44°02' E 010°02'0 0.0
2014-Oct-16 17:32N 44°02' E 010°02'0 0.0
2014-Oct-16 16:29N 44°02' E 010°02'0 0.0
2014-Oct-16 15:32N 44°02' E 010°02'0 0.0
2014-Oct-16 14:32N 44°02' E 010°02'0 0.0
2014-Oct-16 13:29N 44°02' E 010°02'0 0.0
2014-Oct-16 12:32N 44°02' E 010°02'0 0.0
2014-Oct-16 11:32N 44°02' E 010°02'0 0.0
2014-Oct-16 10:32N 44°02' E 010°02'0 0.0
2014-Oct-16 09:32N 44°02' E 010°02'0 0.0
2014-Oct-16 08:32N 44°02' E 010°02'0 0.0
2014-Oct-16 07:32N 44°02' E 010°02'0 0.0
2014-Oct-16 06:32N 44°02' E 010°02'0 0.0
2014-Oct-16 05:32N 44°02' E 010°02'4 3.7
2014-Oct-16 04:33N 44°01' E 009°58'5 5.4
2014-Oct-16 03:33N 44°03' E 009°51'0 0.0
2014-Oct-16 02:33N 44°03' E 009°51'0 0.0
2014-Oct-16 01:33N 44°03' E 009°51'0 0.0
2014-Oct-16 00:33N 44°03' E 009°51'0 0.0
2014-Oct-15 23:33N 44°03' E 009°51'0 0.0
2014-Oct-15 22:33N 44°03' E 009°51'0 0.0
2014-Oct-15 21:34N 44°03' E 009°51'0 0.0
2014-Oct-15 20:34N 44°03' E 009°51'0 0.0
2014-Oct-15 19:34N 44°03' E 009°51'0 0.0
2014-Oct-15 18:34N 44°03' E 009°51'0 0.0
2014-Oct-15 17:34N 44°03' E 009°51'0 0.0
2014-Oct-15 16:34N 44°03' E 009°51'0 0.0
2014-Oct-15 15:33N 44°03' E 009°51'0 0.0
2014-Oct-15 14:33N 44°03' E 009°51'0 0.0
2014-Oct-15 13:34N 44°03' E 009°51'0 0.0
2014-Oct-15 12:34N 44°03' E 009°51'0 0.0
2014-Oct-15 11:34N 44°03' E 009°51'0 0.0
2014-Oct-15 10:34N 44°03' E 009°51'0 0.0
2014-Oct-15 09:33N 44°03' E 009°51'0 0.0
2014-Oct-15 08:34N 44°03' E 009°51'0 0.0
2014-Oct-15 07:33N 44°03' E 009°51'0 0.0
2014-Oct-15 06:33N 44°03' E 009°51'0 0.0
2014-Oct-15 05:34N 44°03' E 009°51'0 0.0
2014-Oct-15 04:34N 44°03' E 009°51'0 0.0
2014-Oct-15 03:34N 44°03' E 009°51'0 0.0
2014-Oct-15 02:34N 44°03' E 009°51'0 0.0
2014-Oct-15 01:34N 44°03' E 009°51'0 0.0
2014-Oct-15 00:34N 44°03' E 009°51'0 0.0
2014-Oct-14 23:34N 44°03' E 009°51'0 0.0
2014-Oct-14 22:33N 44°03' E 009°51'0 0.0
2014-Oct-14 21:33N 44°03' E 009°51'1 1.3
2014-Oct-14 20:33N 44°03' E 009°53'4 4.2
2014-Oct-14 19:33N 44°01' E 009°47'9 9.5
2014-Oct-14 18:34N 44°05' E 009°36'1010.0
2014-Oct-14 17:34N 44°12' E 009°25'10 1.7
2014-Oct-14 11:33N 44°16' E 009°13'1111.2
2014-Oct-14 10:33N 44°10' E 008°60'1111.4
2014-Oct-14 09:33N 44°04' E 008°46'6510.8
2014-Oct-14 03:32N 43°40' E 007°22'4 3.8
2014-Oct-14 02:29N 43°42' E 007°17'0 0.0
2014-Oct-14 01:29N 43°42' E 007°17'0 0.0
2014-Oct-14 00:29N 43°42' E 007°17'0 0.0
2014-Oct-13 23:29N 43°42' E 007°17'0 0.0
2014-Oct-13 22:23N 43°42' E 007°17'0 0.0
2014-Oct-13 21:29N 43°42' E 007°17'0 0.0
2014-Oct-13 20:29N 43°42' E 007°17'0 0.0
2014-Oct-13 19:29N 43°42' E 007°17'0 0.0
2014-Oct-13 18:29N 43°42' E 007°17'0 0.0
2014-Oct-13 17:29N 43°42' E 007°17'0 0.0
2014-Oct-13 16:29N 43°42' E 007°17'0 0.0
2014-Oct-13 15:29N 43°42' E 007°17'0 0.0
2014-Oct-13 14:29N 43°42' E 007°17'0 0.0
2014-Oct-13 12:33N 43°42' E 007°17'0 0.0
2014-Oct-13 11:33N 43°42' E 007°17'0 0.0
2014-Oct-13 10:33N 43°42' E 007°17'0 0.0
2014-Oct-13 09:33N 43°42' E 007°17'0 0.0
2014-Oct-13 08:33N 43°42' E 007°17'0 0.0
2014-Oct-13 07:33N 43°42' E 007°17'0 0.0
2014-Oct-13 06:33N 43°42' E 007°17'0 0.0
2014-Oct-13 05:33N 43°42' E 007°17'0 0.0
2014-Oct-13 04:33N 43°42' E 007°17'0 0.0
2014-Oct-13 03:33N 43°42' E 007°17'0 0.0
2014-Oct-13 02:33N 43°42' E 007°17'0 0.0
2014-Oct-13 01:33N 43°42' E 007°17'0 0.0
2014-Oct-13 00:33N 43°42' E 007°17'0 0.0
2014-Oct-12 23:33N 43°42' E 007°17'0 0.0
2014-Oct-12 22:33N 43°42' E 007°17'0 0.0
2014-Oct-12 21:33N 43°42' E 007°17'0 0.0
2014-Oct-12 20:33N 43°42' E 007°17'0 0.0
2014-Oct-12 19:33N 43°42' E 007°17'0 0.0
2014-Oct-12 18:33N 43°42' E 007°17'0 0.0
2014-Oct-12 17:33N 43°42' E 007°17'0 0.0
2014-Oct-12 16:33N 43°42' E 007°17'0 0.0
2014-Oct-12 15:33N 43°42' E 007°17'0 0.0
2014-Oct-12 14:33N 43°42' E 007°17'0 0.0
2014-Oct-12 13:33N 43°42' E 007°17'0 0.0
2014-Oct-12 12:33N 43°42' E 007°17'0 0.0
2014-Oct-12 11:33N 43°42' E 007°17'0 0.0
2014-Oct-12 10:33N 43°42' E 007°17'0 0.0
2014-Oct-12 09:33N 43°42' E 007°17'0 0.0
2014-Oct-12 08:33N 43°42' E 007°17'0 0.0
2014-Oct-12 07:33N 43°42' E 007°17'0 0.0
2014-Oct-12 06:33N 43°42' E 007°17'0 0.0
2014-Oct-12 05:33N 43°42' E 007°17'0 0.0
2014-Oct-12 04:33N 43°42' E 007°17'0 0.0
2014-Oct-12 03:33N 43°42' E 007°17'0 0.0
2014-Oct-12 02:33N 43°42' E 007°17'0 0.0
2014-Oct-12 01:33N 43°42' E 007°17'0 0.0
2014-Oct-12 00:33N 43°42' E 007°17'0 0.0
2014-Oct-11 23:33N 43°42' E 007°17'0 0.0
2014-Oct-11 22:33N 43°42' E 007°17'0 0.0
2014-Oct-11 21:33N 43°42' E 007°17'0 0.0
2014-Oct-11 20:33N 43°42' E 007°17'0 0.0
2014-Oct-11 19:33N 43°42' E 007°17'0 0.0
2014-Oct-11 18:33N 43°42' E 007°17'0 0.0
2014-Oct-11 17:33N 43°42' E 007°17'0 0.0
2014-Oct-11 15:28N 43°42' E 007°17'0 0.0
2014-Oct-11 14:33N 43°42' E 007°17'0 0.0
2014-Oct-11 13:33N 43°42' E 007°17'0 0.0
2014-Oct-11 12:33N 43°42' E 007°17'0 0.0
2014-Oct-11 11:33N 43°42' E 007°17'0 0.0
2014-Oct-11 10:33N 43°42' E 007°17'0 0.0
2014-Oct-11 09:33N 43°42' E 007°17'0 0.0
2014-Oct-11 08:33N 43°42' E 007°17'0 0.0
2014-Oct-11 07:27N 43°42' E 007°17'0 0.0
2014-Oct-11 06:33N 43°42' E 007°17'0 0.0
2014-Oct-11 05:33N 43°42' E 007°17'1 0.8
2014-Oct-11 04:33N 43°41' E 007°17'  

Dump ship's entire track history